Dewpoint
17 17 18 18 19 21 22 23 23 23 23 24 26 27 30 32 32 32 34 34 35 35 36 38 40 41 41 43 44 45 46 46 46 47 47 48 49 50 50 51 51 52 54 54 54 54 54 55 55 55 55 55 55 56 57 58 59 61 63 63 63 63 63 63 63 63 63 63 64 65 66 66 66 67 67 67 67 67 67 67 67 67 67 66 66 66
17 17 17 18 18 20 22 23 23 23 22 24 26 28 30 31 31 32 32 34 35 36 37 39 40 41 41 42 44 45 45 46 47 47 48 48 49 50 50 50 51 52 53 54 54 54 54 56 56 55 55 55 55 56 56 58 59 60 62 63 63 63 63 63 63 63 63 63 63 64 65 65 66 66 66 67 67 67 67 67 66 66 66 66 65 65
16 16 16 17 18 20 22 23 23 23 23 25 27 29 30 30 31 32 33 34 35 36 37 37 39 40 41 42 44 45 46 46 47 47 48 49 49 50 50 50 51 52 53 54 54 54 54 55 55 55 55 55 55 55 56 57 58 59 61 62 62 62 63 63 63 63 63 63 63 63 64 65 65 66 66 66 66 66 66 65 65 65 65 65 65 65
16 15 15 17 18 20 22 22 23 23 24 26 27 29 29 30 31 32 33 34 36 36 36 36 36 37 39 41 43 45 45 46 47 47 48 48 49 50 50 50 51 52 53 54 54 54 54 55 55 55 55 54 55 55 56 56 58 59 60 60 61 61 61 62 62 62 62 63 63 63 63 64 64 65 65 65 65 65 65 65 65 65 65 65 65 65
16 16 16 18 19 21 23 23 23 23 25 27 28 29 29 30 31 32 33 35 35 35 35 35 35 36 38 40 42 44 45 45 46 47 48 48 49 50 50 50 51 51 52 54 54 54 54 54 54 54 54 54 54 55 55 56 57 58 59 59 60 60 60 61 61 61 61 62 62 62 63 63 63 63 64 64 64 64 64 64 65 65 65 65 65 65
16 17 18 18 19 21 23 23 23 23 25 27 28 29 29 30 31 32 33 33 33 34 34 35 36 36 37 39 41 43 44 45 46 47 48 49 49 50 50 50 51 51 52 53 54 54 54 54 54 54 54 54 54 54 55 56 57 58 59 59 59 59 60 60 60 61 61 61 61 62 62 62 63 63 63 63 63 63 63 64 64 65 65 65 65 65
17 18 18 18 20 22 23 22 23 23 24 26 27 28 28 29 31 32 33 33 33 33 34 35 36 37 36 37 39 41 43 45 46 47 49 49 50 50 50 50 51 51 52 54 54 54 54 54 54 54 54 54 54 54 55 56 57 57 58 59 59 59 59 60 60 60 60 60 61 61 61 61 62 62 62 63 63 63 63 63 64 64 65 65 65 65
17 18 18 18 20 21 22 22 23 24 25 26 26 27 27 28 29 31 33 33 33 34 33 34 35 36 35 38 39 40 41 43 45 47 49 49 49 50 50 50 51 52 53 54 54 54 54 54 54 54 54 54 54 54 55 55 56 57 58 58 59 59 59 59 59 60 60 60 60 60 61 61 61 61 62 62 62 62 62 63 63 64 64 65 65 65
17 17 17 18 20 21 22 22 23 25 27 27 27 27 27 27 28 29 30 30 32 32 32 32 34 34 34 36 37 38 40 41 44 46 47 48 49 50 50 51 51 52 53 54 54 54 54 53 53 54 54 54 54 54 55 55 56 57 58 58 58 59 59 59 59 59 59 59 60 60 60 60 60 60 61 61 61 61 62 62 63 63 63 64 64 65
18 17 17 18 20 21 22 21 22 24 27 27 27 27 27 27 27 26 27 27 28 30 30 31 32 33 33 35 37 39 39 41 44 45 47 49 50 50 51 51 51 52 53 54 54 54 54 54 53 53 54 54 54 54 55 56 56 57 57 57 58 58 59 59 59 59 59 59 59 59 60 60 60 60 60 60 61 61 61 61 62 62 63 63 64 64
18 18 18 18 20 22 23 22 23 24 27 26 26 26 26 26 26 26 25 26 26 27 29 30 31 32 33 35 36 37 39 41 43 45 47 49 50 50 51 51 51 52 52 53 54 54 54 54 54 54 54 54 54 55 55 56 56 57 57 57 57 58 58 59 59 59 59 59 59 59 59 60 60 60 60 60 60 60 60 60 61 61 62 62 63 63
18 18 18 19 20 21 22 22 23 23 24 23 23 23 23 25 27 27 25 25 26 27 28 30 31 32 33 34 35 37 40 42 44 46 48 50 50 51 51 51 52 52 53 54 54 54 54 54 54 54 54 54 55 55 56 57 56 56 56 56 57 57 58 58 59 59 59 59 59 59 59 59 59 59 59 60 60 60 60 60 60 60 61 61 62 63
18 18 18 18 19 20 20 20 21 21 22 22 22 22 22 24 26 27 27 26 26 27 27 29 30 32 33 34 37 40 41 42 43 45 47 49 50 50 51 51 52 53 54 54 54 54 54 54 54 54 55 55 56 56 56 56 56 56 56 56 56 57 57 58 58 58 59 59 59 59 59 59 59 59 59 59 59 59 59 59 59 60 60 61 61 62
17 17 17 18 18 19 19 20 20 21 21 21 22 22 23 24 25 25 26 25 25 26 28 28 29 30 32 35 39 41 41 40 40 41 43 45 48 50 50 51 53 54 55 55 55 55 55 55 55 55 55 56 56 57 56 56 56 55 55 56 56 57 57 58 58 58 58 59 59 59 59 59 59 59 59 59 59 59 59 59 59 59 60 60 61 62
17 17 17 17 18 18 19 20 20 21 21 21 22 23 23 24 24 25 24 24 25 26 27 28 28 30 32 37 40 41 39 38 38 38 39 41 44 46 48 50 52 54 55 54 55 55 55 55 55 56 56 56 57 57 56 56 56 55 55 56 56 57 57 57 57 58 58 58 58 59 59 59 59 59 59 59 59 59 59 59 59 59 59 60 61 61
17 17 16 17 18 18 19 20 20 20 21 22 22 23 23 23 24 25 25 25 25 26 27 27 27 28 32 37 40 40 38 36 36 36 37 39 41 44 46 49 51 53 54 54 54 55 56 56 56 56 56 56 56 55 55 55 55 55 55 56 56 56 57 57 57 57 57 58 58 58 58 59 59 59 59 59 59 59 59 59 59 59 59 60 60 61
17 17 17 17 18 18 19 20 20 21 22 22 22 23 23 24 25 26 25 25 26 27 27 26 25 26 27 31 34 36 36 35 35 35 36 37 40 42 45 47 50 52 54 54 54 55 55 55 55 56 57 56 55 54 54 54 54 55 55 55 56 56 56 57 57 57 57 57 58 58 58 58 58 58 58 58 58 58 58 59 59 59 59 59 60 60
17 17 17 17 18 18 19 20 20 21 23 22 22 23 23 24 25 26 25 26 26 26 26 26 25 25 25 27 30 32 33 33 34 34 35 36 38 41 45 47 50 52 54 54 54 55 55 55 56 56 56 54 54 54 54 54 54 55 55 55 56 56 56 56 57 57 57 57 57 57 58 58 58 58 58 58 58 58 58 58 58 59 59 59 59 60
17 17 17 18 18 18 19 20 20 20 21 22 22 23 23 23 24 25 25 25 26 26 26 25 25 25 25 26 27 30 32 32 33 33 33 35 37 41 44 46 49 52 54 54 54 55 55 55 55 55 54 54 54 54 54 54 54 54 55 55 55 56 56 56 56 57 57 57 57 57 57 57 57 58 58 58 58 58 58 58 58 58 59 59 59 59
17 17 18 18 18 19 19 20 21 21 22 23 23 23 23 24 24 24 24 24 25 26 26 25 25 24 25 26 27 29 32 32 32 32 32 34 36 40 44 46 49 51 53 53 54 55 55 55 55 55 54 54 54 54 54 54 54 54 55 55 55 55 55 56 56 57 57 57 57 57 57 57 57 57 57 57 57 58 58 58 58 58 58 59 59 59
18 17 18 19 20 20 20 20 21 22 23 24 24 24 24 24 23 23 23 23 24 25 25 25 24 25 25 26 27 29 32 32 32 32 32 34 36 40 43 46 49 50 52 53 54 55 55 55 56 56 54 54 54 54 54 54 54 54 54 55 55 55 55 55 56 56 57 57 57 57 57 57 57 57 57 57 57 57 57 57 58 58 58 59 59 59
18 18 19 20 21 21 22 22 23 23 24 25 25 25 25 24 23 23 23 23 24 25 25 25 25 25 26 27 28 30 33 33 33 32 33 33 36 39 43 46 48 50 52 53 54 55 55 55 56 55 54 54 54 54 54 54 54 54 54 54 54 55 55 55 55 56 56 56 56 56 56 57 57 57 57 57 57 57 57 57 57 58 58 58 59 59
19 20 21 22 22 22 23 23 23 23 24 25 26 26 26 25 24 23 23 24 25 25 25 26 26 27 27 28 30 32 35 35 35 35 34 34 35 38 43 46 48 49 52 53 54 55 55 55 55 55 54 53 53 53 53 53 53 53 53 54 54 54 55 55 55 55 56 56 56 56 56 56 56 56 56 56 56 57 57 57 57 58 58 58 58 58
21 22 22 23 23 24 24 23 23 24 25 26 26 27 27 26 26 25 26 26 27 27 26 26 26 26 26 27 29 32 36 37 38 37 36 35 36 39 42 45 46 48 51 53 54 55 55 55 55 55 55 54 53 53 53 53 53 53 53 53 53 54 54 54 55 55 55 55 56 56 56 56 56 56 56 56 56 56 57 57 57 58 58 58 58 58
23 23 23 24 25 27 26 26 26 27 27 27 27 27 27 27 27 27 27 27 27 26 25 24 24 24 24 26 28 32 36 39 39 38 36 35 36 38 41 44 46 48 50 53 54 55 55 55 55 55 55 54 53 53 53 53 53 53 53 53 53 53 54 54 55 55 55 55 55 56 56 56 56 56 56 56 56 56 56 57 57 58 58 58 58 58
25 25 25 26 27 28 28 29 30 30 29 28 27 27 26 26 26 26 26 25 25 24 23 23 23 23 23 25 28 31 34 36 37 36 35 34 34 36 39 43 46 47 49 52 54 55 55 54 54 55 55 54 54 53 53 53 53 53 53 53 52 52 53 54 54 55 55 55 55 55 56 56 56 55 56 56 56 56 56 57 57 57 57 58 58 58
25 26 26 27 27 27 28 28 29 29 29 29 28 27 27 27 26 25 23 23 23 23 23 22 22 22 23 25 26 28 31 34 36 36 35 33 33 35 39 43 46 47 48 50 53 54 54 54 54 54 55 55 54 53 53 52 53 53 53 53 52 52 53 53 54 55 55 55 55 56 56 56 55 55 55 55 55 56 56 56 56 57 57 57 58 58
24 24 24 25 26 26 27 27 27 27 28 28 28 29 28 27 25 23 22 23 23 23 22 21 21 21 22 23 24 26 27 32 34 35 34 33 33 35 39 42 44 45 47 49 51 53 54 54 54 54 55 54 54 54 53 52 52 53 52 52 52 52 52 53 53 54 54 55 55 56 56 56 55 55 55 55 55 55 55 55 56 56 57 58 59 59
22 23 23 23 24 25 25 25 25 26 26 27 28 28 28 26 24 23 23 23 23 22 21 21 21 21 22 22 23 25 27 32 34 34 34 33 33 36 38 39 41 43 46 48 50 50 51 53 54 54 54 54 54 54 54 53 53 53 53 52 52 52 52 52 53 54 54 54 55 55 55 56 55 55 55 55 55 55 55 55 56 57 58 59 59 59
19 20 20 21 22 22 22 22 22 23 25 26 27 27 27 25 24 23 23 23 23 22 21 21 21 21 22 22 23 24 29 32 34 34 33 32 32 34 36 36 38 40 43 46 47 48 48 50 52 54 54 54 54 54 55 54 54 54 54 53 53 52 52 52 52 53 54 54 54 55 55 55 55 55 55 55 55 55 55 55 56 58 59 59 59 59
17 18 18 18 19 19 19 20 20 21 23 24 25 25 25 24 24 24 23 23 23 22 21 21 21 22 22 22 21 23 26 29 32 34 33 32 32 32 34 34 36 38 41 43 44 45 47 48 50 52 53 54 54 54 55 55 55 54 54 54 54 53 52 51 52 53 53 54 54 54 54 55 55 55 55 55 55 55 55 56 57 58 59 59 59 59
17 17 18 18 18 18 18 18 19 19 20 21 22 23 23 24 24 24 23 23 23 23 22 22 22 22 22 22 22 22 23 26 30 33 33 32 32 32 33 33 34 36 38 41 43 45 47 47 48 50 52 54 54 54 55 54 54 54 54 54 54 53 52 52 52 53 53 54 54 54 54 54 54 54 54 55 55 55 55 56 57 58 59 59 59 59
17 17 17 18 18 18 18 18 18 18 19 20 21 21 22 23 23 24 24 24 23 23 23 23 22 22 22 22 23 23 23 25 29 32 34 32 31 32 32 32 33 35 36 40 43 45 48 48 48 49 51 52 53 54 54 54 54 54 54 54 54 53 53 54 54 54 54 54 54 54 54 54 54 54 54 54 54 55 55 56 57 57 58 59 59 59
16 17 17 17 17 17 17 17 18 18 19 19 20 21 21 22 23 23 24 24 24 24 24 23 23 23 22 22 22 23 23 25 29 32 34 32 31 31 31 32 32 33 35 37 41 44 47 48 49 50 50 51 52 53 54 54 54 54 54 54 54 54 54 54 54 54 54 54 55 55 54 54 54 54 54 54 54 55 55 56 56 57 57 58 59 59
15 16 16 16 16 16 16 17 17 18 18 19 19 20 21 21 22 23 23 24 24 24 25 25 25 24 23 23 23 23 23 25 28 32 33 32 32 31 31 31 32 33 33 35 37 40 44 46 48 50 50 50 50 51 53 54 54 54 54 54 54 54 54 55 54 54 54 54 55 55 55 55 55 55 54 54 55 55 55 56 56 56 56 57 58 58
14 14 15 15 15 15 16 16 17 17 18 18 19 20 20 21 22 22 23 23 24 25 26 26 27 26 26 25 24 24 24 26 28 31 32 32 32 31 30 31 32 33 33 33 35 36 40 44 47 50 50 49 50 50 52 53 54 54 54 54 54 54 54 54 54 54 54 54 54 55 55 56 56 56 56 55 54 55 55 55 55 56 56 56 56 57
14 14 14 14 15 15 16 16 16 17 18 18 19 20 20 21 22 23 23 24 25 25 26 27 27 28 28 27 27 27 27 27 29 30 32 32 32 31 30 31 32 33 32 33 33 35 36 41 45 49 49 49 49 50 51 52 53 53 53 54 54 54 53 53 54 54 53 53 54 54 55 55 56 56 55 54 54 54 55 54 55 55 55 55 55 56
14 14 14 14 14 15 15 15 16 17 18 18 19 20 21 22 23 23 24 25 26 26 26 27 27 28 30 30 30 30 29 29 30 31 32 32 32 32 31 31 32 33 33 33 34 34 35 38 43 47 49 49 50 50 51 51 52 52 52 52 52 52 52 52 52 53 53 52 53 53 54 55 55 56 55 55 56 56 56 56 55 55 55 54 54 54
13 13 14 14 15 15 15 16 17 18 18 19 20 21 21 22 23 24 25 25 26 26 27 27 27 28 29 30 31 31 31 31 31 31 32 32 32 32 32 32 32 32 34 34 35 35 35 37 41 45 48 49 50 50 51 51 51 50 50 51 50 50 50 51 51 52 52 52 52 52 53 54 55 55 55 56 56 55 55 55 55 55 55 55 55 54
14 14 14 15 15 15 16 17 18 18 19 20 21 21 21 22 23 24 25 25 25 26 27 27 28 29 30 31 31 32 32 32 32 33 33 34 34 33 33 33 33 33 34 35 35 36 36 37 40 43 47 49 49 50 50 50 50 50 50 49 49 48 49 50 50 50 51 51 51 51 51 53 54 54 54 54 54 54 54 54 54 55 55 55 54 54
14 14 14 15 16 16 17 18 18 18 19 20 20 20 21 21 22 23 23 24 25 26 26 27 28 29 30 32 32 33 34 35 35 36 36 36 36 36 35 34 34 34 35 35 36 36 37 38 41 43 47 49 49 49 49 50 50 50 50 48 47 47 48 49 50 50 50 50 50 50 50 50 51 52 52 53 53 53 54 54 54 54 54 54 54 53
16 15 15 15 16 16 17 18 18 19 19 19 19 20 20 21 22 23 23 23 24 25 26 27 27 28 29 32 34 35 36 36 36 36 36 36 37 37 36 36 36 36 35 36 36 37 39 41 43 44 46 48 49 49 49 50 50 50 48 47 47 47 48 48 49 49 49 48 48 48 48 48 48 49 50 50 51 51 52 53 53 54 54 54 54 53
16 16 16 16 16 17 18 18 18 18 18 19 19 20 21 21 22 23 23 23 24 25 26 27 27 28 29 29 31 32 34 35 35 36 36 36 37 37 37 37 36 36 36 36 36 38 41 43 44 44 45 47 48 49 48 48 48 48 48 48 48 47 46 46 47 47 47 47 46 45 45 45 45 45 46 47 48 49 50 51 52 52 53 53 53 53
16 16 16 16 16 17 17 17 17 17 18 18 19 20 21 22 23 23 23 23 24 25 25 27 27 28 28 28 28 30 32 33 34 35 35 36 37 38 38 37 36 36 36 36 37 39 41 42 43 44 45 46 48 48 47 47 47 47 47 48 48 47 45 45 45 45 45 45 45 44 44 44 44 44 44 44 45 45 46 47 49 50 51 52 52 52
16 17 16 17 16 16 16 16 17 17 18 18 19 19 20 21 23 23 23 23 24 24 25 26 27 27 26 26 27 27 29 31 32 33 34 36 37 38 39 39 39 39 38 39 40 41 41 41 42 44 45 46 46 46 46 46 46 47 47 47 47 46 45 45 45 44 44 43 43 43 44 44 44 44 43 43 43 43 44 45 45 47 48 49 50 50
17 16 16 16 16 16 16 16 17 17 17 18 18 19 20 21 22 23 23 23 23 24 24 25 26 25 25 25 26 26 27 28 30 31 32 34 35 36 38 39 39 39 40 40 40 40 40 41 41 42 44 45 45 45 45 46 46 45 45 45 45 45 44 44 44 44 43 43 43 43 44 44 43 42 41 41 41 41 42 43 44 45 45 47 48 49
16 16 16 16 15 15 15 16 16 16 17 17 18 19 20 21 22 22 23 23 23 23 24 24 25 25 25 25 25 25 26 27 27 28 30 32 33 35 36 38 39 39 38 38 38 38 38 39 39 41 41 42 42 42 43 44 44 44 44 44 44 44 43 43 43 43 43 43 43 43 44 43 42 41 41 40 40 40 41 41 42 43 44 45 46 47
17 17 16 16 16 15 15 16 16 16 16 17 18 18 19 20 21 22 22 22 23 23 23 23 24 24 24 24 25 25 26 26 27 27 28 30 32 33 35 36 38 39 39 39 39 38 38 38 38 38 39 39 39 40 40 41 42 43 43 43 43 42 41 41 42 42 43 43 43 44 44 43 42 41 41 40 40 40 40 41 41 42 43 44 45 46
17 17 17 16 16 15 15 16 16 16 16 17 17 18 19 20 22 23 22 22 22 22 23 23 23 23 24 24 25 25 26 26 26 27 27 28 30 32 33 35 37 38 38 39 39 39 38 38 38 38 38 38 38 38 39 40 40 41 41 41 41 41 40 41 41 41 42 42 43 43 44 43 43 42 41 40 39 39 39 40 41 41 42 43 44 45
16 16 17 16 16 16 15 16 16 16 16 17 17 18 18 19 20 21 21 22 22 22 22 22 23 23 23 24 25 25 26 25 26 26 27 28 29 30 32 33 36 37 38 38 38 38 38 37 37 38 38 38 38 37 37 38 39 40 40 40 40 40 40 40 41 41 41 42 42 42 42 43 43 42 41 40 39 39 39 40 40 41 42 43 44 45
15 16 16 16 16 16 16 16 16 16 16 17 18 18 18 18 19 20 20 21 21 21 21 22 23 23 23 24 25 25 26 25 26 26 27 28 29 30 31 32 34 36 37 38 38 37 37 36 36 35 36 37 38 38 37 37 38 38 38 39 39 40 40 40 40 41 41 41 42 42 42 42 42 42 41 41 39 39 38 39 39 40 41 43 44 45